* Astronomy

Members Login
Post Info TOPIC: Asteroid 2013 RZ73


L

Posts: 131433
Date:
RE: Asteroid 2013 RZ73
Permalink  
 


Asteroid 2013 RZ73 will make a close approach to the Earth (0.0550 AU) at 04:28 UT 00:01, 12th March 2018.



__________________


L

Posts: 131433
Date:
Permalink  
 

Orbital elements:
2013 RZ73                                           PHA, Earth MOID = 0.0278 AU
Epoch 2016 Jan. 13.0 TT = JDT 2457400.5                 MPC
M 203.45100              (2000.0)            P               Q
n   0.61563942     Peri.  262.31697     -0.20206494     +0.97883138
a   1.3685220      Node   355.60457     -0.64401878     -0.15783297
e   0.5338918      Incl.   25.12482     -0.73784116     -0.13029920
P   1.60           H   20.9           G   0.15           U   2

MPEC 2016 - B68



__________________
Page 1 of 1  sorted by
 
Quick Reply

Please log in to post quick replies.



Create your own FREE Forum
Report Abuse
Powered by ActiveBoard